SCP
0 0 0 0 0 0 0 0 0 -0 -0 -0 0 0 0 0 0 0 0 -0 0 0 -0 0 0 0 0 0 0 0 0 0 0 0 0 0 0 0 0 0 0 0 0
0 0 0 0 0 0 0 0 0 -0 -0 -0 0 0 0 0 0 0 0 0 0 0 0 0 0 -0 0 0 0 0 0 0 0 0 0 0 0 0 0 0 0 0 0
0 0 0 0 0 0 -0 -0 -0 -0 -0 -0 0 0 -0 -0 0 0 0 0 0 0 0 0 0 -0 0 -0 0 0 0 0 0 0 0 0 0 0 0 0 0 0 0
0 0 0 0 0 0 0 -0 -0 -0 -0 0 0 -0 0 0 0 0 0 0 0 0 0 0 -0 -0 -0 -0 0 0 0 0 0 0 0 0 0 0 0 0 0 0 0
0 0 0 0 0 0 0 -0 0 -0 -0 -0 0 -0 0 0 0 0 0 0 0 0 0 0 0 0 0 0 0 0 0 0 0 0 0 0 0 0 0 0 0 -0 0
0 0 0 0 -0 -0 -0 0 -0 -0 -0 -0 0 0 0 0 0 0 0 0 0 0 0 0 0 0 0 0 0 0 0 0 0 0 0 0 0 0 0 0 0 0 0
0 0 0 0 0 -0 0 0 -0 -0 -0 0 -0 -0 0 -0 0 0 0 0 0 0 0 0 0 0 0 0 -0 -0 -0 0 0 0 0 0 -0 -0 -0 -0 -0 0 -0
-0 0 0 0 0 0 0 0 0 0 -0 -0 -0 -0 0 0 0 0 0 0 0 0 0 0 0 -0 -0 0 0 0 0 0 0 0 0 -0 0 -0 -0 -0 0 -0 -0
-0 -0 0 0 0 0 0 0 0 0 -0 0 0 -0 0 -0 -0 0 0 0 0 0 0 0 -0 -0 0 0 0 0 0 0 0 0 0 0 0 -0 -0 0 0 -0 0
-0 -0 -0 0 0 0 0 0 0 0 0 0 0 0 0 0 0 -0 0 0 0 0 0 0 0 0 0 0 0 0 -0 0 0 0 0 -0 0 0 0 -0 -0 0 0
-0 -0 -0 -0 0 0 0 0 0 0 0 0 0 0 0 0 0 -0 0 0 0 0 0 0 0 -0 0 0 0 0 -0 -0 0 -0 0 0 -0 -0 0 0 0 0 0
-0 -0 -0 -0 0 -0 0 0 0 0 0 0 0 0 0 0 0 0 -0 0 0 -0 -0 -0 -0 0 0 0 0 -0 -0 -0 -0 -0 0 0 0 0 0 0 0 0 0
-0 -0 -0 -0 0 0 -0 -0 0 0 0 0 0 0 0 0 0 0 0 0 0 0 0 -0 -0 -0 -0 0 -0 -0 -0 0 -0 0 -0 -0 -0 -0 0 0 0 0 0
-0 -0 -0 -0 -0 -0 -0 -0 0 0 0 0 0 0 0 0 0 0 0 0 -0 -0 -0 0 -0 -0 -0 -0 0 0 -0 0 0 0 -0 -0 -0 0 0 0 0 0 0
-0 -0 -0 -0 -0 -0 -0 0 0 0 0 0 0 0 0 0 0 0 0 0 0 -0 -0 -0 -0 -0 0 0 0 0 0 0 0 -0 -0 0 0 0 0 0 0 0 0
-0 -0 -0 -0 -0 -0 -0 -0 -0 -0 -0 -0 -0 -0 -0 -0 0 0 -0 0 -0 -0 0 0 0 0 0 0 0 0 -0 -0 0 0 0 0 0 0 0 0 0 0 0
-0 -0 -0 -0 -0 -0 -0 -0 0 -0 -0 -0 -0 0 0 0 0 -0 -0 -0 -0 -0 0 0 0 0 0 -0 -0 -0 -0 0 0 0 0 0 0 0 0 0 0 0 0
-0 -0 -0 -0 -0 -0 -0 -0 -0 0 -0 -0 -0 -0 0 0 -0 -0 -0 -0 0 0 0 0 0 -0 -0 -0 -0 -0 -0 0 0 0 0 0 0 0 0 0 0 0 0
0 0 0 0 0 0 0 -0 -0 -0 -0 -0 -0 -0 -0 0 0 0 -0 0 -0 -0 0 0 -0 -0 -0 -0 -0 0 0 0 0 0 0 0 0 0 0 0 0 0 0
0 0 0 0 0 0 0 0 0 -0 -0 0 0 -0 0 0 0 0 0 0 0 0 0 0 -0 -0 -0 0 0 0 0 0 0 0 0 0 0 0 0 0 0 0 0
0 0 0 0 0 0 0 0 0 0 0 0 0 0 0 0 0 0 0 0 0 0 0 0 0 0 0 0 0 0 0 0 0 0 0 0 0 0 0 0 0 0 0
0 0 0 0 0 0 0 0 0 0 0 0 0 0 0 0 0 0 0 0 0 0 0 0 0 0 0 0 0 0 0 0 0 0 0 0 0 0 0 0 0 0 0
0 0 0 0 0 0 0 0 0 0 0 0 0 0 0 0 0 0 0 0 0 0 0 0 0 0 0 0 0 0 0 0 0 0 0 0 0 0 0 0 0 0 0
0 0 0 0 0 0 0 0 0 0 0 0 0 0 0 0 0 0 0 0 0 0 0 0 0 0 0 0 0 0 0 0 0 0 0 0 0 0 0 0 0 0 0
0 0 0 0 0 0 0 0 0 0 0 0 0 0 0 0 0 0 0 0 0 0 0 0 0 0 0 0 0 0 0 0 0 0 0 0 0 0 0 0 0 0 0
0 0 0 0 0 0 0 0 0 0 0 0 0 0 0 0 0 0 0 0 0 0 0 0 0 0 0 0 0 0 0 0 0 0 0 0 0 0 0 0 0 0 0
Wind_Speed_500mb
14 10 6 3 6 5 4 4 10 17 22 24 22 15 13 13 10 9 17 17 12 19 17 13 13 20 31 25 22 25 25 34 52 47 83 89 81 83 70 58 50 42 37
13 10 6 1 4 5 6 11 14 17 20 22 23 16 11 12 11 15 17 16 18 21 18 13 17 24 27 25 18 29 33 34 42 65 75 87 82 71 65 57 46 36 34
12 12 9 3 3 6 9 11 13 18 19 22 21 15 11 12 16 16 17 18 19 22 19 22 26 26 34 20 28 31 36 41 48 68 82 71 81 61 58 53 43 39 37
15 14 10 5 5 15 13 16 19 21 22 23 24 23 20 19 21 20 17 20 23 23 23 24 21 20 24 26 26 32 34 44 61 70 70 61 74 64 53 47 44 41 37
18 14 10 9 11 19 16 20 21 22 24 25 27 26 21 20 23 26 25 24 26 30 29 27 28 28 27 23 25 34 34 50 56 69 70 70 68 65 54 46 45 44 37
20 15 13 13 17 21 17 22 21 25 28 28 25 23 24 26 29 30 23 21 26 31 33 34 29 27 29 26 28 38 33 48 50 68 64 64 64 56 46 45 49 48 38
25 18 18 19 22 27 21 20 22 22 22 20 19 20 22 24 26 19 17 17 23 31 38 39 37 31 32 28 30 31 44 50 40 60 60 70 61 50 45 50 47 37 34
31 23 24 22 24 27 21 21 20 20 18 13 12 18 22 21 18 14 11 12 23 35 38 40 38 41 37 42 54 59 58 55 47 43 47 57 46 42 45 47 45 43 36
37 30 31 27 29 28 23 21 20 22 21 18 17 22 25 28 14 11 18 25 36 38 38 42 45 46 47 40 51 58 40 38 41 43 47 49 45 45 46 44 41 34 30
41 36 33 33 31 29 23 23 23 29 30 27 32 29 27 29 27 25 24 32 37 45 43 54 48 50 45 37 37 40 44 48 51 50 49 50 49 44 39 32 25 25 28
43 40 35 37 33 29 25 23 23 29 30 28 29 32 29 30 31 32 27 32 40 45 47 46 51 45 35 32 40 43 45 46 48 47 47 44 40 36 32 28 29 23 20
47 46 40 39 37 35 30 28 28 29 32 31 30 30 31 32 31 34 37 40 47 54 54 57 46 37 34 39 40 37 36 40 43 43 40 38 35 33 31 28 24 19 16
51 50 46 41 44 39 36 34 32 31 33 34 32 33 34 33 34 36 39 40 37 46 52 47 38 33 34 37 39 40 37 38 38 34 31 31 32 29 25 24 23 19 12
57 53 53 47 50 47 41 37 35 35 35 34 32 32 35 37 37 37 38 41 41 40 39 35 31 32 34 36 39 41 36 30 25 23 26 28 28 27 24 20 17 15 10
61 57 58 54 50 54 48 46 43 36 33 35 35 34 36 37 36 34 35 37 38 38 36 34 35 36 39 42 42 41 38 31 28 28 28 28 27 26 25 24 21 17 16
68 64 63 61 57 54 56 49 45 40 34 30 26 27 32 30 32 33 33 32 32 33 37 39 39 39 40 43 44 44 42 37 35 34 33 31 29 26 28 30 28 25 19
71 70 67 65 62 55 54 52 52 47 41 37 33 33 30 28 36 36 34 33 32 34 36 38 40 42 44 45 45 46 46 44 42 40 37 36 36 34 33 36 34 31 24
75 69 68 69 68 62 57 53 46 46 51 50 47 43 41 39 36 35 40 41 45 47 45 38 44 46 47 48 48 48 47 48 44 44 44 43 42 41 38 40 39 35 28
81 77 72 68 68 68 61 55 49 44 45 42 50 51 48 49 51 48 47 49 51 54 55 54 50 49 48 48 50 51 52 53 51 51 49 48 47 46 45 43 39 35 32
83 79 76 72 70 70 72 65 57 54 51 47 50 53 58 58 60 64 65 62 60 58 58 59 58 57 54 52 52 53 57 59 58 58 57 55 55 53 52 51 51 51 42
86 85 82 77 74 71 72 75 68 63 60 57 59 55 57 56 60 63 67 69 70 67 63 62 62 62 63 62 59 59 60 61 62 65 66 64 61 58 58 56 55 51 47
86 88 86 86 80 77 76 73 73 71 67 65 63 62 59 56 58 58 60 62 64 67 67 65 62 63 64 64 65 66 65 67 68 69 71 71 66 63 64 65 59 57 57
78 84 85 87 85 81 79 76 74 74 73 70 66 63 66 66 67 63 58 55 54 55 59 64 63 65 62 59 59 61 65 70 72 71 73 72 72 73 70 69 68 71 64
70 71 75 81 82 80 82 83 80 78 76 76 73 72 71 67 68 68 61 53 50 48 53 58 61 63 63 61 60 60 60 63 68 68 70 75 79 81 70 69 76 67 67
57 59 61 66 72 79 77 77 80 82 80 79 78 79 76 73 69 65 63 62 57 53 51 50 54 56 58 61 64 66 67 67 67 71 73 80 82 75 69 78 81 77 69
58 59 45 42 56 67 72 75 75 75 75 74 74 77 77 75 70 65 62 62 62 59 54 52 51 54 57 60 64 67 67 66 68 68 65 67 69 72 83 86 82 81 66
Wind_Direction_500mb
160 165 157 44 23 51 53 63 146 148 159 171 166 162 161 174 170 161 158 173 171 167 176 185 175 170 174 159 165 162 158 174 149 149 144 152 146 148 151 151 146 149 147
172 181 169 97 26 42 98 110 133 147 164 169 166 164 163 163 150 150 160 163 162 165 158 166 158 168 172 165 169 161 156 166 163 150 148 153 155 155 153 147 143 145 140
185 184 178 172 38 102 113 116 133 147 151 160 167 174 167 151 140 143 151 148 152 157 154 136 132 138 152 151 146 149 162 165 167 159 149 154 162 152 149 140 140 143 135
184 172 182 167 83 129 120 115 127 135 140 144 147 147 142 136 134 137 135 131 130 130 131 138 138 140 164 160 158 156 147 157 156 156 158 154 146 151 142 139 139 136 137
184 175 184 151 121 136 121 114 123 127 131 135 139 140 137 130 130 131 125 121 124 125 130 135 131 135 137 142 154 153 158 160 165 161 163 159 150 147 149 147 147 137 143
183 179 175 143 137 139 127 122 121 131 132 136 138 139 134 123 120 119 113 115 118 127 128 131 129 132 133 127 140 150 159 160 165 174 166 162 162 150 149 153 148 150 147
186 179 169 146 141 139 126 123 129 132 133 137 142 149 148 144 140 131 121 121 128 131 137 132 133 132 137 129 150 144 149 144 145 161 169 164 161 160 158 158 156 154 159
189 180 172 157 149 143 133 125 136 140 132 139 165 165 168 161 153 145 143 145 141 140 139 139 137 134 128 122 128 125 120 130 131 138 148 161 162 163 161 160 162 160 156
193 187 179 167 157 143 137 130 130 141 127 99 114 152 174 161 154 163 149 140 149 145 145 138 144 135 134 130 138 141 120 126 138 143 148 153 154 154 160 161 160 161 153
196 192 186 177 170 157 145 138 134 143 139 111 98 112 133 133 130 130 136 148 146 146 145 143 143 137 134 132 140 149 137 134 133 136 141 145 151 154 158 166 171 170 172
195 195 191 187 178 174 162 147 141 145 147 137 125 118 121 130 133 128 127 140 154 154 150 150 146 137 135 137 136 140 144 140 138 143 148 154 159 163 164 165 166 174 184
192 197 195 191 185 181 174 164 157 149 153 147 144 135 127 127 132 138 132 134 132 140 144 144 141 138 136 141 144 146 151 154 151 150 150 156 164 166 167 170 174 176 187
194 199 197 193 192 188 184 178 171 164 158 153 149 149 147 141 136 136 144 153 146 145 151 150 150 151 151 153 154 153 148 149 156 161 168 169 171 172 176 178 176 171 172
196 200 200 197 194 194 193 193 188 181 178 172 163 158 155 155 156 155 152 151 155 160 164 169 172 173 172 169 167 168 170 170 172 181 188 185 183 182 184 183 188 191 198
194 200 202 202 200 199 200 199 201 202 196 189 186 181 175 171 169 165 165 166 169 174 177 178 178 178 181 184 188 190 191 189 193 200 205 201 202 201 200 203 205 207 212
195 197 202 203 202 203 204 204 205 205 202 198 198 200 193 188 183 182 180 180 182 184 186 192 194 196 197 198 201 204 206 207 209 207 209 213 217 222 221 214 211 210 214
200 199 201 206 205 204 204 205 206 205 205 206 201 198 198 195 197 195 195 194 194 199 204 207 209 210 209 209 210 212 214 215 216 214 216 221 224 227 227 220 219 218 214
205 206 203 202 207 207 208 206 204 205 207 208 205 205 203 201 202 208 212 214 218 216 216 216 219 220 220 221 221 222 222 223 224 224 225 228 231 234 230 223 222 220 218
206 208 207 207 208 209 209 208 208 208 209 211 213 210 210 211 211 214 218 224 226 227 226 227 226 227 227 229 229 229 230 231 230 232 234 238 238 236 232 227 221 218 216
209 211 209 209 209 210 213 213 211 212 213 213 218 216 218 216 219 221 222 223 228 230 232 233 233 232 232 231 232 233 234 235 235 235 238 241 241 238 233 226 222 220 211
210 213 213 213 213 211 213 215 216 217 219 220 222 221 227 226 230 232 234 234 235 237 238 238 236 235 236 236 236 236 237 239 240 242 244 243 242 238 234 224 226 221 209
210 215 214 216 217 217 217 218 220 223 225 226 228 230 229 229 234 236 240 246 247 247 248 249 247 244 243 244 243 243 243 243 243 244 246 246 245 240 236 230 221 212 208
213 216 217 217 220 222 224 224 224 225 227 230 230 232 233 232 233 237 244 250 250 250 249 248 247 246 246 247 248 251 251 250 252 252 250 247 242 237 236 230 222 217 209
210 215 216 219 221 223 226 228 229 231 231 232 233 234 238 236 240 241 243 242 244 247 246 247 247 247 248 248 249 249 253 254 254 253 250 248 242 239 237 224 219 215 201
206 212 219 223 225 228 231 232 234 235 236 235 238 238 239 240 243 245 245 246 246 242 240 239 243 247 247 248 251 253 254 254 254 253 249 245 244 242 238 226 219 211 199
199 198 209 233 241 239 236 238 237 237 237 241 241 242 242 243 245 246 244 243 244 244 243 243 244 245 247 247 247 248 250 253 255 257 257 252 244 237 227 216 212 202 197
Wind_Speed_850mb
14 10 6 3 6 5 4 4 10 17 22 24 22 15 13 13 10 9 17 17 12 19 17 13 13 20 31 25 22 25 25 34 52 47 83 89 81 83 70 58 50 42 37
13 10 6 1 4 5 6 11 14 17 20 22 23 16 11 12 11 15 17 16 18 21 18 13 17 24 27 25 18 29 33 34 42 65 75 87 82 71 65 57 46 36 34
12 12 9 3 3 6 9 11 13 18 19 22 21 15 11 12 16 16 17 18 19 22 19 22 26 26 34 20 28 31 36 41 48 68 82 71 81 61 58 53 43 39 37
15 14 10 5 5 15 13 16 19 21 22 23 24 23 20 19 21 20 17 20 23 23 23 24 21 20 24 26 26 32 34 44 61 70 70 61 74 64 53 47 44 41 37
18 14 10 9 11 19 16 20 21 22 24 25 27 26 21 20 23 26 25 24 26 30 29 27 28 28 27 23 25 34 34 50 56 69 70 70 68 65 54 46 45 44 37
20 15 13 13 17 21 17 22 21 25 28 28 25 23 24 26 29 30 23 21 26 31 33 34 29 27 29 26 28 38 33 48 50 68 64 64 64 56 46 45 49 48 38
25 18 18 19 22 27 21 20 22 22 22 20 19 20 22 24 26 19 17 17 23 31 38 39 37 31 32 28 30 31 44 50 40 60 60 70 61 50 45 50 47 37 34
31 23 24 22 24 27 21 21 20 20 18 13 12 18 22 21 18 14 11 12 23 35 38 40 38 41 37 42 54 59 58 55 47 43 47 57 46 42 45 47 45 43 36
37 30 31 27 29 28 23 21 20 22 21 18 17 22 25 28 14 11 18 25 36 38 38 42 45 46 47 40 51 58 40 38 41 43 47 49 45 45 46 44 41 34 30
41 36 33 33 31 29 23 23 23 29 30 27 32 29 27 29 27 25 24 32 37 45 43 54 48 50 45 37 37 40 44 48 51 50 49 50 49 44 39 32 25 25 28
43 40 35 37 33 29 25 23 23 29 30 28 29 32 29 30 31 32 27 32 40 45 47 46 51 45 35 32 40 43 45 46 48 47 47 44 40 36 32 28 29 23 20
47 46 40 39 37 35 30 28 28 29 32 31 30 30 31 32 31 34 37 40 47 54 54 57 46 37 34 39 40 37 36 40 43 43 40 38 35 33 31 28 24 19 16
51 50 46 41 44 39 36 34 32 31 33 34 32 33 34 33 34 36 39 40 37 46 52 47 38 33 34 37 39 40 37 38 38 34 31 31 32 29 25 24 23 19 12
57 53 53 47 50 47 41 37 35 35 35 34 32 32 35 37 37 37 38 41 41 40 39 35 31 32 34 36 39 41 36 30 25 23 26 28 28 27 24 20 17 15 10
61 57 58 54 50 54 48 46 43 36 33 35 35 34 36 37 36 34 35 37 38 38 36 34 35 36 39 42 42 41 38 31 28 28 28 28 27 26 25 24 21 17 16
68 64 63 61 57 54 56 49 45 40 34 30 26 27 32 30 32 33 33 32 32 33 37 39 39 39 40 43 44 44 42 37 35 34 33 31 29 26 28 30 28 25 19
71 70 67 65 62 55 54 52 52 47 41 37 33 33 30 28 36 36 34 33 32 34 36 38 40 42 44 45 45 46 46 44 42 40 37 36 36 34 33 36 34 31 24
75 69 68 69 68 62 57 53 46 46 51 50 47 43 41 39 36 35 40 41 45 47 45 38 44 46 47 48 48 48 47 48 44 44 44 43 42 41 38 40 39 35 28
81 77 72 68 68 68 61 55 49 44 45 42 50 51 48 49 51 48 47 49 51 54 55 54 50 49 48 48 50 51 52 53 51 51 49 48 47 46 45 43 39 35 32
83 79 76 72 70 70 72 65 57 54 51 47 50 53 58 58 60 64 65 62 60 58 58 59 58 57 54 52 52 53 57 59 58 58 57 55 55 53 52 51 51 51 42
86 85 82 77 74 71 72 75 68 63 60 57 59 55 57 56 60 63 67 69 70 67 63 62 62 62 63 62 59 59 60 61 62 65 66 64 61 58 58 56 55 51 47
86 88 86 86 80 77 76 73 73 71 67 65 63 62 59 56 58 58 60 62 64 67 67 65 62 63 64 64 65 66 65 67 68 69 71 71 66 63 64 65 59 57 57
78 84 85 87 85 81 79 76 74 74 73 70 66 63 66 66 67 63 58 55 54 55 59 64 63 65 62 59 59 61 65 70 72 71 73 72 72 73 70 69 68 71 64
70 71 75 81 82 80 82 83 80 78 76 76 73 72 71 67 68 68 61 53 50 48 53 58 61 63 63 61 60 60 60 63 68 68 70 75 79 81 70 69 76 67 67
57 59 61 66 72 79 77 77 80 82 80 79 78 79 76 73 69 65 63 62 57 53 51 50 54 56 58 61 64 66 67 67 67 71 73 80 82 75 69 78 81 77 69
58 59 45 42 56 67 72 75 75 75 75 74 74 77 77 75 70 65 62 62 62 59 54 52 51 54 57 60 64 67 67 66 68 68 65 67 69 72 83 86 82 81 66
Wind_Direction_850mb
160 165 157 44 23 51 53 63 146 148 159 171 166 162 161 174 170 161 158 173 171 167 176 185 175 170 174 159 165 162 158 174 149 149 144 152 146 148 151 151 146 149 147
172 181 169 97 26 42 98 110 133 147 164 169 166 164 163 163 150 150 160 163 162 165 158 166 158 168 172 165 169 161 156 166 163 150 148 153 155 155 153 147 143 145 140
185 184 178 172 38 102 113 116 133 147 151 160 167 174 167 151 140 143 151 148 152 157 154 136 132 138 152 151 146 149 162 165 167 159 149 154 162 152 149 140 140 143 135
184 172 182 167 83 129 120 115 127 135 140 144 147 147 142 136 134 137 135 131 130 130 131 138 138 140 164 160 158 156 147 157 156 156 158 154 146 151 142 139 139 136 137
184 175 184 151 121 136 121 114 123 127 131 135 139 140 137 130 130 131 125 121 124 125 130 135 131 135 137 142 154 153 158 160 165 161 163 159 150 147 149 147 147 137 143
183 179 175 143 137 139 127 122 121 131 132 136 138 139 134 123 120 119 113 115 118 127 128 131 129 132 133 127 140 150 159 160 165 174 166 162 162 150 149 153 148 150 147
186 179 169 146 141 139 126 123 129 132 133 137 142 149 148 144 140 131 121 121 128 131 137 132 133 132 137 129 150 144 149 144 145 161 169 164 161 160 158 158 156 154 159
189 180 172 157 149 143 133 125 136 140 132 139 165 165 168 161 153 145 143 145 141 140 139 139 137 134 128 122 128 125 120 130 131 138 148 161 162 163 161 160 162 160 156
193 187 179 167 157 143 137 130 130 141 127 99 114 152 174 161 154 163 149 140 149 145 145 138 144 135 134 130 138 141 120 126 138 143 148 153 154 154 160 161 160 161 153
196 192 186 177 170 157 145 138 134 143 139 111 98 112 133 133 130 130 136 148 146 146 145 143 143 137 134 132 140 149 137 134 133 136 141 145 151 154 158 166 171 170 172
195 195 191 187 178 174 162 147 141 145 147 137 125 118 121 130 133 128 127 140 154 154 150 150 146 137 135 137 136 140 144 140 138 143 148 154 159 163 164 165 166 174 184
192 197 195 191 185 181 174 164 157 149 153 147 144 135 127 127 132 138 132 134 132 140 144 144 141 138 136 141 144 146 151 154 151 150 150 156 164 166 167 170 174 176 187
194 199 197 193 192 188 184 178 171 164 158 153 149 149 147 141 136 136 144 153 146 145 151 150 150 151 151 153 154 153 148 149 156 161 168 169 171 172 176 178 176 171 172
196 200 200 197 194 194 193 193 188 181 178 172 163 158 155 155 156 155 152 151 155 160 164 169 172 173 172 169 167 168 170 170 172 181 188 185 183 182 184 183 188 191 198
194 200 202 202 200 199 200 199 201 202 196 189 186 181 175 171 169 165 165 166 169 174 177 178 178 178 181 184 188 190 191 189 193 200 205 201 202 201 200 203 205 207 212
195 197 202 203 202 203 204 204 205 205 202 198 198 200 193 188 183 182 180 180 182 184 186 192 194 196 197 198 201 204 206 207 209 207 209 213 217 222 221 214 211 210 214
200 199 201 206 205 204 204 205 206 205 205 206 201 198 198 195 197 195 195 194 194 199 204 207 209 210 209 209 210 212 214 215 216 214 216 221 224 227 227 220 219 218 214
205 206 203 202 207 207 208 206 204 205 207 208 205 205 203 201 202 208 212 214 218 216 216 216 219 220 220 221 221 222 222 223 224 224 225 228 231 234 230 223 222 220 218
206 208 207 207 208 209 209 208 208 208 209 211 213 210 210 211 211 214 218 224 226 227 226 227 226 227 227 229 229 229 230 231 230 232 234 238 238 236 232 227 221 218 216
209 211 209 209 209 210 213 213 211 212 213 213 218 216 218 216 219 221 222 223 228 230 232 233 233 232 232 231 232 233 234 235 235 235 238 241 241 238 233 226 222 220 211
210 213 213 213 213 211 213 215 216 217 219 220 222 221 227 226 230 232 234 234 235 237 238 238 236 235 236 236 236 236 237 239 240 242 244 243 242 238 234 224 226 221 209
210 215 214 216 217 217 217 218 220 223 225 226 228 230 229 229 234 236 240 246 247 247 248 249 247 244 243 244 243 243 243 243 243 244 246 246 245 240 236 230 221 212 208
213 216 217 217 220 222 224 224 224 225 227 230 230 232 233 232 233 237 244 250 250 250 249 248 247 246 246 247 248 251 251 250 252 252 250 247 242 237 236 230 222 217 209
210 215 216 219 221 223 226 228 229 231 231 232 233 234 238 236 240 241 243 242 244 247 246 247 247 247 248 248 249 249 253 254 254 253 250 248 242 239 237 224 219 215 201
206 212 219 223 225 228 231 232 234 235 236 235 238 238 239 240 243 245 245 246 246 242 240 239 243 247 247 248 251 253 254 254 254 253 249 245 244 242 238 226 219 211 199
199 198 209 233 241 239 236 238 237 237 237 241 241 242 242 243 245 246 244 243 244 244 243 243 244 245 247 247 247 248 250 253 255 257 257 252 244 237 227 216 212 202 197